Facebook Twitter

Wetterstation Nörvenich (Flugplatz)

Messwerte
  Temperatur Wetter Niederschlag Luftdruck Wind
So, 21:20 Uhr 13° - - 1018 hPa 8 km/h SO
So, 21:00 Uhr 15° wolkenlos - 1018.8 hPa 11 km/h SO
So, 20:20 Uhr 16° - - 1018 hPa 10 km/h SO
So, 20:00 Uhr 17° wolkenlos 0 mm 1018.5 hPa 11 km/h SO

Böen 50 km/h
So, 19:20 Uhr 18° - - 1018 hPa 14 km/h SO
So, 19:00 Uhr 18° wolkenlos - 1018.4 hPa 18 km/h SO
So, 18:20 Uhr 19° - - 1018 hPa 19 km/h SO
So, 18:00 Uhr 19° wolkenlos - 1018.3 hPa 18 km/h SO

Böen 36 km/h
So, 17:20 Uhr 19° - - 1019 hPa 21 km/h O

Böen 40 km/h
So, 17:00 Uhr 19° wolkenlos - 1019.1 hPa 22 km/h O

Böen 50 km/h
So, 16:20 Uhr 19° - - 1019 hPa 16 km/h SO
So, 16:00 Uhr 19° wolkenlos - 1019.7 hPa 18 km/h SO

Böen 50 km/h
So, 15:20 Uhr 19° - - 1020 hPa 23 km/h SO
So, 15:00 Uhr 19° wolkenlos - 1020.4 hPa 25 km/h O
So, 14:20 Uhr 18° - - 1021 hPa 24 km/h SO
So, 14:00 Uhr 18° wolkenlos - 1021.1 hPa 25 km/h SO

Böen 43 km/h
So, 13:20 Uhr 17° - - 1021 hPa 23 km/h SO
So, 13:00 Uhr 16° wolkenlos - 1021.9 hPa 25 km/h SO

Böen 50 km/h
So, 12:20 Uhr 16° - - 1022 hPa 27 km/h SO

Böen 50 km/h
So, 11:20 Uhr 14° - - 1022 hPa 24 km/h O

Alle Zeitangaben MESZ